{"data":{"norad_id":59430,"epoch":"2026-09-21T20:04:21.576576Z","epoch_age_seconds":49803,"freshness":"FRESH","line1":"1 59430U 24065K   26264.83636084 -.00001002  00000+0 -18516-4 0  9995","line2":"2 59430  53.1596  87.5192 0001260  97.0721 263.0425 15.34392895139003","mean_motion":15.34392895,"eccentricity":0.000126,"inclination_deg":53.1596,"raan_deg":87.5192,"arg_perigee_deg":97.0721,"mean_anomaly_deg":263.0425,"bstar":-1.8516e-5,"rev_number":13900,"period_min":93.848192642993,"perigee_km":461.86240931482,"apogee_km":463.58630637699,"semimajor_km":6840.8613578459,"source":"CELESTRAK","updated_at":"2026-09-22T09:00:48.940097Z"}}